This is the latest recevied weather packets stored in our database for station/object XE1GMR. If no packets are shown the sender has not sent any weather packets the latest 10 day(s).
| Time | Temp. | Humidity | Pressure | Rain* | Wind** | Luminosity | Snow |
|---|---|---|---|---|---|---|---|
| 1778200581 | 26.11° C | 42% | 1119.6 hPa | 0 mm | - | 25 W/m² | - |
| 1778200279 | 26.11° C | 40% | 1119.5 hPa | 0 mm | - | 34 W/m² | - |
| 1778199975 | 26.67° C | 39% | 1119.6 hPa | 0 mm | - | 38 W/m² | - |
| 1778199674 | 26.67° C | 38% | 1119.5 hPa | 0 mm | - | 49 W/m² | - |
| 1778199368 | 26.67° C | 38% | 1119.3 hPa | 0 mm | - | 66 W/m² | - |
| 1778199064 | 27.22° C | 36% | 1119.4 hPa | 0 mm | - | 65 W/m² | - |
| 1778198761 | 27.22° C | 35% | 1119.2 hPa | 0 mm | - | 71 W/m² | - |
| 1778198458 | 27.22° C | 35% | 1119.1 hPa | 0 mm | - | 67 W/m² | - |
| 1778198155 | 27.22° C | 35% | 1119.1 hPa | 0 mm | - | 72 W/m² | - |
| 1778197852 | 26.67° C | 36% | 1119 hPa | 0 mm | - | 72 W/m² | - |
| 1778197548 | 26.67° C | 36% | 1119.1 hPa | 0 mm | - | 57 W/m² | - |
| 1778197245 | 26.67° C | 36% | 1119.1 hPa | 0 mm | - | 41 W/m² | - |
| 1778196942 | 26.67° C | 36% | 1119.3 hPa | 0 mm | - | 58 W/m² | - |
| 1778196641 | 27.22° C | 35% | 1119 hPa | 0 mm | - | 121 W/m² | - |
| 1778196336 | 27.22° C | 35% | 1119.1 hPa | 0 mm | - | 131 W/m² | - |
| 1778196034 | 26.67° C | 35% | 1119.1 hPa | 0 mm | - | 151 W/m² | - |
| 1778195730 | 26.67° C | 35% | 1119.2 hPa | 0 mm | - | 162 W/m² | - |
| 1778195428 | 27.22° C | 36% | 1119 hPa | 0 mm | - | 183 W/m² | - |
| 1778195124 | 26.67° C | 36% | 1119.2 hPa | 0 mm | - | 207 W/m² | - |
| 1778194821 | 26.67° C | 36% | 1119 hPa | 0 mm | - | 235 W/m² | - |
| 1778194516 | 26.67° C | 36% | 1119.3 hPa | 0 mm | - | 262 W/m² | - |
| 1778194212 | 26.67° C | 35% | 1119.2 hPa | 0 mm | - | 121 W/m² | - |
| 1778193908 | 27.22° C | 35% | 1119.3 hPa | 0 mm | - | 121 W/m² | - |
| 1778193605 | 27.22° C | 37% | 1119.2 hPa | 0 mm | - | 157 W/m² | - |
| 1778193301 | 27.22° C | 37% | 1119.1 hPa | 0 mm | - | 131 W/m² | - |
* Rain latest hour (hover to see other rain measurements)
** Current wind speed in m/s (hover to see current wind gust speed)